sat.trackr.live / text

‹ back to catalog

QIANFAN-203

NORAD 69802 · 2026-153C

PAYLOAD ACTIVE UNKNOWN

§ Identity

Operator
Country
PRC
Launch date
2026-07-04
Launch site
TAISC
Launch vehicle
Mass (kg)
RCS (m²)

External: N2YO · Heavens-Above · Gunter

§ Orbital elements

Epoch: 2026-09-19T20:59:57.060672Z

Period
102.59 min
Inclination
88.9973°
Eccentricity
0.0010759
Mean motion
14.03597517 rev/d
Perigee alt
873.6 km
Apogee alt
889.2 km
Semi-major
7,259.5 km
B*
-1.2284e+0
RAAN
351.5313°
Arg perigee
335.7645°
Mean anomaly
24.3028°
Rev number
1,096

§ Raw data

QIANFAN-2031 69802U 26153C   26262.87496598 -.01784701  00000+0 -12284+1 0  99922 69802  88.9973 351.5313 0010759 335.7645  24.3028 14.03597517 10964

JSON: /api/v1/satellites/69802 · /tle

For live sub-satellite position, see the globe view (requires WebGL).

§ Visibility from observer

Set your observer location to see the next 7 days of passes ≥ 10°. The values pass through the URL so the page stays shareable.

No JS? Fill the form by hand. The geolocation button needs JavaScript.